This is the latest recevied telemetry packets stored in our database for station/object HS5TQA-14. If no packets are shown the sender has not sent any telemetry packets the latest 1 day(s).
Telemetry packets is used to share measurements like repeteater parameters, battery voltage, radiation readings (or any other measurements).
| Time | TEMP* | HUM* | BAR* | BAT* | SAT* |
|---|---|---|---|---|---|
| 1778058603 | 36.38 °C | 76.7 %RH | 1005.1 hPa | 13.4 V | 25 |
| 1778057992 | 36.56 °C | 76.3 %RH | 1005.1 hPa | 13.4 V | 25 |
| 1778057384 | 36.79 °C | 75.9 %RH | 1005.1 hPa | 13.4 V | 24 |
| 1778056776 | 37.03 °C | 75.4 %RH | 1005.1 hPa | 13.4 V | 25 |
| 1778056165 | 37.3 °C | 75.3 %RH | 1005.3 hPa | 13.4 V | 26 |
| 1778054949 | 37.84 °C | 75.2 %RH | 1005.4 hPa | 13.4 V | 25 |
| 1778054338 | 38.16 °C | 74.8 %RH | 1005.7 hPa | 13.41 V | 24 |
| 1778053729 | 38.51 °C | 74.6 %RH | 1005.8 hPa | 13.39 V | 21 |
| 1778053121 | 38.83 °C | 74.2 %RH | 1005.9 hPa | 13.43 V | 27 |
| 1778052510 | 39.16 °C | 74.1 %RH | 1006.1 hPa | 13.43 V | 26 |
| 1778051902 | 39.29 °C | 75.6 %RH | 1006.3 hPa | 13.34 V | 27 |
| 1778051294 | 39.27 °C | 76.4 %RH | 1006.2 hPa | 13.4 V | 24 |
| 1778050683 | 39.04 °C | 78 %RH | 1006.7 hPa | 13.43 V | 28 |
| 1778050074 | 38.68 °C | 78.5 %RH | 1006.5 hPa | 13.48 V | 27 |
| 1778049463 | 38.3 °C | 79.5 %RH | 1006.7 hPa | 13.48 V | 27 |
| 1778048855 | 37.85 °C | 80 %RH | 1006.8 hPa | 13.5 V | 26 |
| 1778048247 | 37.38 °C | 80.2 %RH | 1007 hPa | 13.5 V | 26 |
| 1778047636 | 36.87 °C | 80.9 %RH | 1007.2 hPa | 13.49 V | 22 |
| 1778047029 | 36.37 °C | 81.2 %RH | 1007.5 hPa | 13.52 V | 24 |
| 1778046421 | 35.89 °C | 81.6 %RH | 1007.7 hPa | 13.52 V | 27 |
| 1778045811 | 35.4 °C | 81.9 %RH | 1007.8 hPa | 13.57 V | 29 |
| 1778045203 | 34.91 °C | 82.7 %RH | 1007.9 hPa | 13.6 V | 28 |
| 1778044594 | 34.49 °C | 82.9 %RH | 1008.1 hPa | 13.49 V | 26 |
| 1778043375 | 33.74 °C | 82.8 %RH | 1008.4 hPa | 13.49 V | 28 |
| 1778042767 | 33.44 °C | 81.8 %RH | 1008.6 hPa | 13.48 V | 28 |
*Used Equation Coefficients:
TEMP: 0, 0.01, 0
HUM: 0, 0.1, 0
BAR: 0, 0.1, 800
BAT: 0, 0.01, 0
SAT: 0, 1, 0
- The parameter names for the analog channels will be Value1, Value2, Value3 (up to Value5) if station has not sent a PARAM-packet that specifies the parameter names for each analog channel.
- Each analog value is a decimal number between 000 and 255 (according to APRS specifications). The receiver use the telemetry equation coefficientsto to restore the original sensor values. If no EQNS-packet with equation coefficients is sent we will show the values as is (this corresponds to the equation coefficients a=0, b=1 and c=0).
The sent equation coefficients is used in the equation: a * value2 + b * value + c. - The units for the analog values will not be shown if station has not sent a UNIT-packet specifying what unit's to use.
- The parameter names for the digital bits will be Bit1, Bit2, Bit3 (up to Bit8) if station has not sent a PARAM-packet that specifies the parameter names for each digital bit.
- All bit labels will be named "On" if station has not sent a UNIT-packet that specifies the label of each bit.
- A bit is considered to be On when the bit is 1 if station has not sent a BITS-packet that specifies another "Bit sense" (a BITS-packet specify the state of the bits that match the BIT labels)